,,Stat5,,Stat1,,Stat2,,Stat3,,Stat4,,Wind1,,Wind1,
time,status,PA1M_AVG,status,PR1M_SUM,status,RH1M_AVG,status,SR1M_AVG,status,TA1M_AVG,status,W1dAve1m,status,W1sAve1m,
2002-06-10, 00:00:01,VALID,916.331,VALID,0,VALID,99.3441,VALID,-0.0849042,VALID,20.3868,VALID,352,VALID,0.182227,
2002-06-10, 00:01:00,VALID,916.323,VALID,0,VALID,99.3403,VALID,-0.0849042,VALID,20.403,VALID,10,VALID,0.32433,
2002-06-10, 00:02:00,VALID,916.316,VALID,0,VALID,99.3441,VALID,-0.0509425,VALID,20.4191,VALID,10,VALID,0.262638,
2002-06-10, 00:03:00,VALID,916.305,VALID,0,VALID,99.3543,VALID,-0.0849042,VALID,20.452,VALID,11,VALID,0.562305,
2002-06-10, 00:04:00,VALID,916.294,VALID,0,VALID,99.3632,VALID,-0.0509425,VALID,20.4611,VALID,11,VALID,0.713778,
2002-06-10, 00:05:00,VALID,916.272,VALID,0,VALID,99.3543,VALID,-0.0339617,VALID,20.4743,VALID,28,VALID,0.670089,
2002-06-10, 00:06:00,VALID,916.27,VALID,0,VALID,99.3543,VALID,-0.0679233,VALID,20.4838,VALID,18,VALID,0.305273,
2002-06-10, 00:07:00,VALID,916.273,VALID,0,VALID,99.353,VALID,-0.0679233,VALID,20.4974,VALID,14,VALID,0.0238839,
2002-06-10, 00:08:00,VALID,916.277,VALID,0,VALID,99.367,VALID,-0.0849042,VALID,20.5196,VALID,14,VALID,0.0011489,
2002-06-10, 00:09:00,VALID,916.293,VALID,0,VALID,99.3581,VALID,-0.0849042,VALID,20.5196,VALID,354,VALID,0.0882813,
2002-06-10, 00:10:00,VALID,916.289,VALID,0,VALID,99.3619,VALID,-0.0169808,VALID,20.4964,VALID,327,VALID,0.0826231,
2002-06-10, 00:11:00,VALID,916.304,VALID,0,VALID,99.3441,VALID,0,VALID,20.4733,VALID,275,VALID,0.152679,
2002-06-10, 00:12:00,VALID,916.295,VALID,0,VALID,99.3441,VALID,0.0339617,VALID,20.434,VALID,244,VALID,0.371875,
2002-06-10, 00:13:00,VALID,916.299,VALID,0,VALID,99.3505,VALID,0,VALID,20.4313,VALID,238,VALID,0.00982143,
2002-06-10, 00:14:00,VALID,916.294,VALID,0,VALID,99.3454,VALID,0.0169808,VALID,20.441,VALID,238,VALID,0,
2002-06-10, 00:15:00,VALID,916.289,VALID,0,VALID,99.3428,VALID,0.0339617,VALID,20.4569,VALID,238,VALID,0,
2002-06-10, 00:16:00,VALID,916.299,VALID,0,VALID,99.3543,VALID,0.0169808,VALID,20.4735,VALID,238,VALID,0,
2002-06-10, 00:17:00,VALID,916.295,VALID,0,VALID,99.3594,VALID,0.0509425,VALID,20.4857,VALID,238,VALID,0,
2002-06-10, 00:18:00,VALID,916.278,VALID,0,VALID,99.3581,VALID,0,VALID,20.4951,VALID,238,VALID,0,
2002-06-10, 00:19:00,VALID,916.261,VALID,0,VALID,99.3594,VALID,0.0169808,VALID,20.5056,VALID,238,VALID,0,
2002-06-10, 00:20:00,VALID,916.227,VALID,0,VALID,99.3568,VALID,0.0339617,VALID,20.5118,VALID,2,VALID,0.337316,
2002-06-10, 00:21:00,VALID,916.202,VALID,0,VALID,99.3606,VALID,0,VALID,20.4795,VALID,11,VALID,0.388672,
2002-06-10, 00:22:00,VALID,916.168,VALID,0,VALID,99.3568,VALID,0,VALID,20.4755,VALID,13,VALID,0.375,
2002-06-10, 00:23:00,VALID,916.129,VALID,0,VALID,99.3581,VALID,0.0169808,VALID,20.5185,VALID,13,VALID,0.30067,
2002-06-10, 00:24:00,VALID,916.103,VALID,0,VALID,99.3543,VALID,0.0339617,VALID,20.5438,VALID,13,VALID,0.312695,
2002-06-10, 00:25:00,VALID,916.073,VALID,0,VALID,99.3657,VALID,0.0509425,VALID,20.5018,VALID,13,VALID,0.409821,
2002-06-10, 00:26:00,VALID,916.061,VALID,0,VALID,99.3632,VALID,0,VALID,20.518,VALID,13,VALID,0.411994,
2002-06-10, 00:27:00,VALID,916.033,VALID,0,VALID,99.3695,VALID,0,VALID,20.5091,VALID,13,VALID,0.393359,
2002-06-10, 00:28:00,VALID,916.009,VALID,0,VALID,99.3594,VALID,-0.0169808,VALID,20.5193,VALID,13,VALID,0.503906,
2002-06-10, 00:29:00,VALID,916.01,VALID,0,VALID,99.3556,VALID,0,VALID,20.5121,VALID,13,VALID,0.477455,
2002-06-10, 00:30:00,VALID,916,VALID,0,VALID,99.3606,VALID,0,VALID,20.5086,VALID,13,VALID,0.412695,
2002-06-10, 00:31:00,VALID,915.983,VALID,0,VALID,99.3644,VALID,0,VALID,20.5347,VALID,21,VALID,0.48058,
2002-06-10, 00:32:00,VALID,915.977,VALID,0,VALID,99.3695,VALID,0.0169808,VALID,20.5215,VALID,21,VALID,0.402344,
2002-06-10, 00:33:00,VALID,915.967,VALID,0,VALID,99.3594,VALID,0,VALID,20.4994,VALID,11,VALID,0.439453,
2002-06-10, 00:34:00,VALID,915.972,VALID,0,VALID,99.3556,VALID,0,VALID,20.4835,VALID,11,VALID,0.400805,
2002-06-10, 00:35:00,VALID,915.957,VALID,0,VALID,99.3632,VALID,0.0169808,VALID,20.4671,VALID,17,VALID,0.483929,
2002-06-10, 00:36:00,VALID,915.947,VALID,0,VALID,99.3657,VALID,0,VALID,20.4598,VALID,20,VALID,0.545703,
2002-06-10, 00:37:00,VALID,915.953,VALID,0,VALID,99.3657,VALID,0,VALID,20.4636,VALID,6,VALID,0.635938,
2002-06-10, 00:38:00,VALID,915.961,VALID,0,VALID,99.3644,VALID,0,VALID,20.441,VALID,6,VALID,0.596967,
2002-06-10, 00:39:00,VALID,915.954,VALID,0,VALID,99.3683,VALID,0,VALID,20.4219,VALID,3,VALID,0.782422,
2002-06-10, 00:40:00,VALID,915.943,VALID,0,VALID,99.3543,VALID,0.0169808,VALID,20.4027,VALID,14,VALID,0.856061,
2002-06-10, 00:41:00,VALID,915.922,VALID,0,VALID,99.3632,VALID,0.0169808,VALID,20.3861,VALID,8,VALID,0.685714,
2002-06-10, 00:42:00,VALID,915.91,VALID,0,VALID,99.3632,VALID,0,VALID,20.392,VALID,10,VALID,0.70918,
2002-06-10, 00:43:00,VALID,915.898,VALID,0,VALID,99.3721,VALID,0,VALID,20.4094,VALID,15,VALID,0.671205,
2002-06-10, 00:44:00,VALID,915.884,VALID,0,VALID,99.3683,VALID,0,VALID,20.3928,VALID,16,VALID,0.806756,
2002-06-10, 00:45:00,VALID,915.875,VALID,0,VALID,99.3772,VALID,0,VALID,20.3764,VALID,10,VALID,0.696094,
2002-06-10, 00:46:00,VALID,915.88,VALID,0,VALID,99.3746,VALID,-0.0169808,VALID,20.3828,VALID,16,VALID,0.651989,
2002-06-10, 00:47:00,VALID,915.872,VALID,0,VALID,99.3797,VALID,0,VALID,20.399,VALID,3,VALID,0.48058,
2002-06-10, 00:48:00,VALID,915.868,VALID,0,VALID,99.3772,VALID,0.0169808,VALID,20.3833,VALID,10,VALID,0.726758,
2002-06-10, 00:49:00,VALID,915.859,VALID,0,VALID,99.3772,VALID,0,VALID,20.36,VALID,26,VALID,0.607366,
2002-06-10, 00:50:00,VALID,915.856,VALID,0,VALID,99.3797,VALID,0,VALID,20.3893,VALID,24,VALID,0.504136,
2002-06-10, 00:51:00,VALID,915.843,VALID,0,VALID,99.3759,VALID,0,VALID,20.3764,VALID,9,VALID,0.481055,
2002-06-10, 00:52:00,VALID,915.848,VALID,0,VALID,99.3759,VALID,0,VALID,20.3441,VALID,360,VALID,0.287405,
2002-06-10, 00:53:00,VALID,915.828,VALID,0,VALID,99.3835,VALID,0,VALID,20.3475,VALID,360,VALID,0.257589,
2002-06-10, 00:54:00,VALID,915.823,VALID,0,VALID,99.381,VALID,0.0169808,VALID,20.3182,VALID,360,VALID,0.0808594,
2002-06-10, 00:55:00,VALID,915.803,VALID,0,VALID,99.381,VALID,0,VALID,20.2983,VALID,360,VALID,0,
2002-06-10, 00:56:00,VALID,915.791,VALID,0,VALID,99.3886,VALID,0,VALID,20.3053,VALID,360,VALID,0,
2002-06-10, 00:57:00,VALID,915.783,VALID,0,VALID,99.3899,VALID,-0.0339617,VALID,20.3182,VALID,360,VALID,0,
2002-06-10, 00:58:00,VALID,915.8,VALID,0,VALID,99.3912,VALID,0,VALID,20.3346,VALID,360,VALID,0,
2002-06-10, 00:59:00,VALID,915.786,VALID,0,VALID,99.3962,VALID,-0.0169808,VALID,20.3344,VALID,360,VALID,0,
2002-06-10, 01:00:00,VALID,915.798,VALID,0,VALID,99.3962,VALID,0,VALID,20.3515,VALID,360,VALID,0,
2002-06-10, 01:01:00,VALID,915.8,VALID,0,VALID,99.4039,VALID,0,VALID,20.3702,VALID,360,VALID,0,
2002-06-10, 01:02:00,VALID,915.797,VALID,0,VALID,99.3962,VALID,0.0509425,VALID,20.3634,VALID,360,VALID,0,
2002-06-10, 01:03:00,VALID,915.795,VALID,0,VALID,99.3975,VALID,0,VALID,20.3508,VALID,360,VALID,0,
2002-06-10, 01:04:00,VALID,915.79,VALID,0,VALID,99.3962,VALID,0,VALID,20.3441,VALID,360,VALID,0,
2002-06-10, 01:05:00,VALID,915.794,VALID,0,VALID,99.4039,VALID,0,VALID,20.3575,VALID,360,VALID,0,
2002-06-10, 01:06:00,VALID,915.797,VALID,0,VALID,99.4064,VALID,0.0169808,VALID,20.3731,VALID,360,VALID,0,
2002-06-10, 01:07:00,VALID,915.791,VALID,0,VALID,99.409,VALID,0.0339617,VALID,20.389,VALID,360,VALID,0.0180804,
2002-06-10, 01:08:00,VALID,915.788,VALID,0,VALID,99.3962,VALID,0.0339617,VALID,20.3662,VALID,360,VALID,0.00183824,
2002-06-10, 01:09:00,VALID,915.807,VALID,0,VALID,99.3988,VALID,-0.0169808,VALID,20.347,VALID,360,VALID,0,
2002-06-10, 01:10:00,VALID,915.79,VALID,0,VALID,99.4051,VALID,0,VALID,20.3411,VALID,360,VALID,0,
2002-06-10, 01:11:00,VALID,915.792,VALID,0,VALID,99.4153,VALID,0,VALID,20.3182,VALID,360,VALID,0,
2002-06-10, 01:12:00,VALID,915.779,VALID,0,VALID,99.4077,VALID,0.0169808,VALID,20.3316,VALID,360,VALID,0,
2002-06-10, 01:13:00,VALID,915.761,VALID,0,VALID,99.4013,VALID,0.0169808,VALID,20.3446,VALID,360,VALID,0.0292411,
2002-06-10, 01:14:00,VALID,915.735,VALID,0,VALID,99.4115,VALID,0.0169808,VALID,20.354,VALID,2,VALID,0.0712316,
2002-06-10, 01:15:00,VALID,915.738,VALID,0,VALID,99.3988,VALID,0.0169808,VALID,20.3575,VALID,4,VALID,0.107617,
2002-06-10, 01:16:00,VALID,915.721,VALID,0,VALID,99.4064,VALID,0,VALID,20.3341,VALID,4,VALID,0.0359848,
2002-06-10, 01:17:00,VALID,915.709,VALID,0,VALID,99.3962,VALID,0,VALID,20.3212,VALID,4,VALID,0,
2002-06-10, 01:18:00,VALID,915.689,VALID,0,VALID,99.4013,VALID,0,VALID,20.2924,VALID,83,VALID,0.207031,
2002-06-10, 01:19:00,VALID,915.682,VALID,0,VALID,99.4039,VALID,-0.0169808,VALID,20.2822,VALID,133,VALID,0.3,
2002-06-10, 01:20:00,VALID,915.689,VALID,0,VALID,99.4026,VALID,0,VALID,20.2926,VALID,135,VALID,0.511949,
2002-06-10, 01:21:00,VALID,915.701,VALID,0,VALID,99.3937,VALID,0.0169808,VALID,20.2762,VALID,133,VALID,0.444727,
2002-06-10, 01:22:00,VALID,915.715,VALID,0,VALID,99.3937,VALID,-0.0339617,VALID,20.2635,VALID,132,VALID,0.411932,
2002-06-10, 01:23:00,VALID,915.717,VALID,0,VALID,99.3962,VALID,0,VALID,20.2474,VALID,141,VALID,0.793973,
2002-06-10, 01:24:00,VALID,915.726,VALID,0,VALID,99.4013,VALID,-0.0169808,VALID,20.2603,VALID,145,VALID,0.70918,
2002-06-10, 01:25:00,VALID,915.712,VALID,0,VALID,99.4039,VALID,-0.0509425,VALID,20.2509,VALID,134,VALID,0.540402,
2002-06-10, 01:26:00,VALID,915.719,VALID,0,VALID,99.3924,VALID,-0.101885,VALID,20.2551,VALID,138,VALID,0.597886,
2002-06-10, 01:27:00,VALID,915.713,VALID,0,VALID,99.4115,VALID,-0.101885,VALID,20.2484,VALID,132,VALID,0.654883,
2002-06-10, 01:28:00,VALID,915.692,VALID,0,VALID,99.3975,VALID,-0.0679233,VALID,20.2462,VALID,138,VALID,0.755445,
2002-06-10, 01:29:00,VALID,915.671,VALID,0,VALID,99.4039,VALID,-0.101885,VALID,20.233,VALID,139,VALID,0.643304,
2002-06-10, 01:30:00,VALID,915.657,VALID,0,VALID,99.4077,VALID,-0.0679233,VALID,20.236,VALID,165,VALID,0.630859,
2002-06-10, 01:31:00,VALID,915.645,VALID,0,VALID,99.4077,VALID,-0.0849042,VALID,20.2454,VALID,157,VALID,0.759375,
2002-06-10, 01:32:00,VALID,915.632,VALID,0,VALID,99.4179,VALID,-0.0849042,VALID,20.236,VALID,158,VALID,0.838695,
2002-06-10, 01:33:00,VALID,915.64,VALID,0,VALID,99.4179,VALID,-0.101885,VALID,20.2231,VALID,152,VALID,1.25391,
2002-06-10, 01:34:00,VALID,915.637,VALID,0,VALID,99.4128,VALID,-0.101885,VALID,20.2298,VALID,152,VALID,0.775805,
2002-06-10, 01:35:00,VALID,915.631,VALID,0,VALID,99.4128,VALID,-0.101885,VALID,20.229,VALID,168,VALID,0.553795,
2002-06-10, 01:36:00,VALID,915.631,VALID,0,VALID,99.4204,VALID,-0.101885,VALID,20.233,VALID,160,VALID,0.663477,
2002-06-10, 01:37:00,VALID,915.641,VALID,0,VALID,99.414,VALID,-0.101885,VALID,20.2293,VALID,143,VALID,0.33058,
2002-06-10, 01:38:00,VALID,915.648,VALID,0,VALID,99.4229,VALID,-0.0849042,VALID,20.2198,VALID,156,VALID,0.417739,
2002-06-10, 01:39:00,VALID,915.68,VALID,0,VALID,99.4204,VALID,-0.101885,VALID,20.2171,VALID,155,VALID,0.251758,
2002-06-10, 01:40:00,VALID,915.673,VALID,0,VALID,99.4255,VALID,-0.0509425,VALID,20.2,VALID,157,VALID,0.0759943,
2002-06-10, 01:41:00,VALID,915.674,VALID,0,VALID,99.4318,VALID,-0.0169808,VALID,20.196,VALID,157,VALID,0,
2002-06-10, 01:42:00,VALID,915.659,VALID,0,VALID,99.4268,VALID,0,VALID,20.2089,VALID,157,VALID,0,
2002-06-10, 01:43:00,VALID,915.662,VALID,0,VALID,99.4446,VALID,0,VALID,20.2151,VALID,157,VALID,0,
2002-06-10, 01:44:00,VALID,915.647,VALID,0,VALID,99.4382,VALID,0,VALID,20.2119,VALID,157,VALID,0,
2002-06-10, 01:45:00,VALID,915.633,VALID,0,VALID,99.428,VALID,0,VALID,20.2153,VALID,157,VALID,0,
2002-06-10, 01:46:00,VALID,915.616,VALID,0,VALID,99.4344,VALID,0,VALID,20.2315,VALID,157,VALID,0.0407197,
2002-06-10, 01:47:00,VALID,915.613,VALID,0,VALID,99.4306,VALID,0.0169808,VALID,20.2151,VALID,149,VALID,0.305357,
2002-06-10, 01:48:00,VALID,915.599,VALID,0,VALID,99.4293,VALID,0.0169808,VALID,20.186,VALID,136,VALID,0.349805,
2002-06-10, 01:49:00,VALID,915.583,VALID,0,VALID,99.4217,VALID,0,VALID,20.1736,VALID,133,VALID,0.347098,
2002-06-10, 01:50:00,VALID,915.561,VALID,0,VALID,99.4217,VALID,0,VALID,20.1609,VALID,133,VALID,0.204733,
2002-06-10, 01:51:00,VALID,915.54,VALID,0,VALID,99.4255,VALID,-0.0169808,VALID,20.1415,VALID,133,VALID,0.167773,
2002-06-10, 01:52:00,VALID,915.512,VALID,0,VALID,99.4331,VALID,-0.0169808,VALID,20.1217,VALID,133,VALID,0.177794,
2002-06-10, 01:53:00,VALID,915.501,VALID,0,VALID,99.4382,VALID,-0.0169808,VALID,20.1058,VALID,133,VALID,0.193973,
2002-06-10, 01:54:00,VALID,915.482,VALID,0,VALID,99.4344,VALID,0.0169808,VALID,20.0918,VALID,133,VALID,0.251172,
2002-06-10, 01:55:00,VALID,915.457,VALID,0,VALID,99.442,VALID,0.0169808,VALID,20.1023,VALID,133,VALID,0.0535714,
2002-06-10, 01:56:00,VALID,915.459,VALID,0,VALID,99.4395,VALID,0.0169808,VALID,20.1122,VALID,133,VALID,0.139936,
2002-06-10, 01:57:00,VALID,915.439,VALID,0,VALID,99.4446,VALID,0,VALID,20.102,VALID,133,VALID,0,
2002-06-10, 01:58:00,VALID,915.42,VALID,0,VALID,99.442,VALID,0,VALID,20.0859,VALID,133,VALID,0.00118371,
2002-06-10, 01:59:00,VALID,915.421,VALID,0,VALID,99.4293,VALID,0,VALID,20.06,VALID,133,VALID,0.0145089,
2002-06-10, 02:00:00,VALID,915.418,VALID,0,VALID,99.4344,VALID,0,VALID,20.0307,VALID,133,VALID,0,
2002-06-10, 02:01:00,VALID,915.408,VALID,0,VALID,99.4357,VALID,0.0509425,VALID,19.9892,VALID,133,VALID,0.129911,
2002-06-10, 02:02:00,VALID,915.411,VALID,0,VALID,99.4408,VALID,0,VALID,19.9765,VALID,105,VALID,0.368796,
2002-06-10, 02:03:00,VALID,915.402,VALID,0,VALID,99.4293,VALID,-0.0169808,VALID,19.9509,VALID,90,VALID,0.608789,
2002-06-10, 02:04:00,VALID,915.416,VALID,0,VALID,99.4331,VALID,0,VALID,19.9122,VALID,90,VALID,0.562027,
2002-06-10, 02:05:00,VALID,915.414,VALID,0,VALID,99.4395,VALID,0.0169808,VALID,19.8794,VALID,89,VALID,0.655134,
2002-06-10, 02:06:00,VALID,915.406,VALID,0,VALID,99.4433,VALID,0.0339617,VALID,19.8597,VALID,95,VALID,0.596484,
2002-06-10, 02:07:00,VALID,915.395,VALID,0,VALID,99.4471,VALID,0.0169808,VALID,19.8637,VALID,99,VALID,0.531027,
2002-06-10, 02:08:00,VALID,915.381,VALID,0,VALID,99.456,VALID,0,VALID,19.8665,VALID,101,VALID,0.545267,
2002-06-10, 02:09:00,VALID,915.365,VALID,0,VALID,99.4573,VALID,0.0169808,VALID,19.8443,VALID,93,VALID,0.791797,
2002-06-10, 02:10:00,VALID,915.342,VALID,0,VALID,99.4611,VALID,0.0339617,VALID,19.8342,VALID,96,VALID,0.741951,
2002-06-10, 02:11:00,VALID,915.312,VALID,0,VALID,99.4624,VALID,0.0339617,VALID,19.8145,VALID,103,VALID,0.531473,
2002-06-10, 02:12:00,VALID,915.286,VALID,0,VALID,99.4611,VALID,0.0339617,VALID,19.8145,VALID,124,VALID,0.74707,
2002-06-10, 02:13:00,VALID,915.244,VALID,0,VALID,99.4751,VALID,0.0339617,VALID,19.8312,VALID,138,VALID,0.748884,
2002-06-10, 02:14:00,VALID,915.208,VALID,0,VALID,99.4827,VALID,0,VALID,19.821,VALID,121,VALID,0.780561,
2002-06-10, 02:15:00,VALID,915.178,VALID,0,VALID,99.4853,VALID,0,VALID,19.8178,VALID,129,VALID,0.480273,
2002-06-10, 02:16:00,VALID,915.144,VALID,0,VALID,99.4891,VALID,0.0509425,VALID,19.8185,VALID,135,VALID,0.384233,
2002-06-10, 02:17:00,VALID,915.111,VALID,0,VALID,99.5005,VALID,0.0339617,VALID,19.815,VALID,127,VALID,0.534375,
2002-06-10, 02:18:00,VALID,915.097,VALID,0,VALID,99.5018,VALID,0.0509425,VALID,19.8145,VALID,109,VALID,0.561523,
2002-06-10, 02:19:00,VALID,915.068,VALID,0,VALID,99.5018,VALID,0.0169808,VALID,19.8217,VALID,101,VALID,0.592634,
2002-06-10, 02:20:00,VALID,915.047,VALID,0,VALID,99.5056,VALID,0.0339617,VALID,19.8384,VALID,102,VALID,0.696002,
2002-06-10, 02:21:00,VALID,915.026,VALID,0,VALID,99.5056,VALID,0,VALID,19.8446,VALID,107,VALID,0.594336,
2002-06-10, 02:22:00,VALID,915.028,VALID,0,VALID,99.512,VALID,0,VALID,19.8478,VALID,119,VALID,0.566051,
2002-06-10, 02:23:00,VALID,915.043,VALID,0,VALID,99.5132,VALID,0,VALID,19.8376,VALID,123,VALID,0.559821,
2002-06-10, 02:24:00,VALID,915.035,VALID,0,VALID,99.5234,VALID,0,VALID,19.8503,VALID,123,VALID,0.488086,
2002-06-10, 02:25:00,VALID,915.046,VALID,0,VALID,99.512,VALID,0.0169808,VALID,19.8704,VALID,116,VALID,0.455804,
2002-06-10, 02:26:00,VALID,915.032,VALID,0,VALID,99.5107,VALID,0.0169808,VALID,19.8441,VALID,105,VALID,0.353401,
2002-06-10, 02:27:00,VALID,915.033,VALID,0,VALID,99.5107,VALID,0.0339617,VALID,19.864,VALID,117,VALID,0.440039,
2002-06-10, 02:28:00,VALID,915.013,VALID,0,VALID,99.5183,VALID,0.0679233,VALID,19.8635,VALID,127,VALID,0.326231,
2002-06-10, 02:29:00,VALID,914.999,VALID,0,VALID,99.5183,VALID,0.0509425,VALID,19.8503,VALID,106,VALID,0.381473,
2002-06-10, 02:30:00,VALID,914.992,VALID,0,VALID,99.5209,VALID,0.0679233,VALID,19.8535,VALID,121,VALID,0.316602,
2002-06-10, 02:31:00,VALID,914.998,VALID,0,VALID,99.5259,VALID,0.0679233,VALID,19.8568,VALID,121,VALID,0.258036,
2002-06-10, 02:32:00,VALID,915,VALID,0,VALID,99.5247,VALID,0.0509425,VALID,19.857,VALID,119,VALID,0.221278,
2002-06-10, 02:33:00,VALID,914.996,VALID,0,VALID,99.5247,VALID,0.0169808,VALID,19.8438,VALID,99,VALID,0.483398,
2002-06-10, 02:34:00,VALID,915.003,VALID,0,VALID,99.5145,VALID,0.0169808,VALID,19.8118,VALID,89,VALID,0.588068,
2002-06-10, 02:35:00,VALID,915.01,VALID,0,VALID,99.5145,VALID,0.0339617,VALID,19.7765,VALID,88,VALID,0.71317,
2002-06-10, 02:36:00,VALID,915.015,VALID,0,VALID,99.5221,VALID,0.0339617,VALID,19.7733,VALID,88,VALID,0.803711,
2002-06-10, 02:37:00,VALID,915.004,VALID,0,VALID,99.5221,VALID,0.0509425,VALID,19.7435,VALID,86,VALID,0.66183,
2002-06-10, 02:38:00,VALID,914.992,VALID,0,VALID,99.5247,VALID,0.0169808,VALID,19.737,VALID,82,VALID,0.674862,
2002-06-10, 02:39:00,VALID,914.984,VALID,0,VALID,99.5209,VALID,0.0509425,VALID,19.7248,VALID,75,VALID,0.848828,
2002-06-10, 02:40:00,VALID,914.952,VALID,0,VALID,99.5247,VALID,0,VALID,19.6962,VALID,75,VALID,0.835938,
2002-06-10, 02:41:00,VALID,914.942,VALID,0,VALID,99.5272,VALID,-0.0679233,VALID,19.6746,VALID,83,VALID,0.777009,
2002-06-10, 02:42:00,VALID,914.917,VALID,0,VALID,99.5323,VALID,-0.0679233,VALID,19.6252,VALID,89,VALID,0.757031,
2002-06-10, 02:43:00,VALID,914.909,VALID,0,VALID,99.5323,VALID,-0.0849042,VALID,19.6001,VALID,89,VALID,0.789732,
2002-06-10, 02:44:00,VALID,914.878,VALID,0,VALID,99.5348,VALID,-0.0679233,VALID,19.5673,VALID,91,VALID,0.806756,
2002-06-10, 02:45:00,VALID,914.867,VALID,0,VALID,99.5361,VALID,-0.0849042,VALID,19.5481,VALID,92,VALID,0.884766,
2002-06-10, 02:46:00,VALID,914.861,VALID,0,VALID,99.5488,VALID,-0.0509425,VALID,19.5551,VALID,99,VALID,0.901515,
2002-06-10, 02:47:00,VALID,914.842,VALID,0,VALID,99.559,VALID,-0.0339617,VALID,19.5904,VALID,106,VALID,0.916295,
2002-06-10, 02:48:00,VALID,914.809,VALID,0,VALID,99.5565,VALID,-0.0509425,VALID,19.5934,VALID,112,VALID,0.894141,
2002-06-10, 02:49:00,VALID,914.802,VALID,0,VALID,99.5641,VALID,-0.0509425,VALID,19.6294,VALID,118,VALID,1.01518,
2002-06-10, 02:50:00,VALID,914.799,VALID,0,VALID,99.5704,VALID,-0.0339617,VALID,19.6098,VALID,117,VALID,0.978171,
2002-06-10, 02:51:00,VALID,914.788,VALID,0,VALID,99.5616,VALID,-0.0679233,VALID,19.6065,VALID,107,VALID,1.03203,
2002-06-10, 02:52:00,VALID,914.77,VALID,0,VALID,99.5641,VALID,-0.0849042,VALID,19.6132,VALID,114,VALID,0.765625,
2002-06-10, 02:53:00,VALID,914.755,VALID,0,VALID,99.573,VALID,-0.0849042,VALID,19.607,VALID,117,VALID,0.873884,
2002-06-10, 02:54:00,VALID,914.741,VALID,0,VALID,99.5654,VALID,-0.0849042,VALID,19.6359,VALID,122,VALID,0.672461,
2002-06-10, 02:55:00,VALID,914.749,VALID,0,VALID,99.5679,VALID,-0.101885,VALID,19.6488,VALID,117,VALID,0.556027,
2002-06-10, 02:56:00,VALID,914.737,VALID,0,VALID,99.5857,VALID,-0.0679233,VALID,19.6585,VALID,117,VALID,0.653263,
2002-06-10, 02:57:00,VALID,914.729,VALID,0,VALID,99.5819,VALID,-0.0509425,VALID,19.6846,VALID,132,VALID,0.712305,
2002-06-10, 02:58:00,VALID,914.747,VALID,0,VALID,99.587,VALID,-0.101885,VALID,19.7104,VALID,136,VALID,0.888258,
2002-06-10, 02:59:00,VALID,914.733,VALID,0,VALID,99.5883,VALID,-0.101885,VALID,19.7166,VALID,140,VALID,1.16384,
2002-06-10, 03:00:00,VALID,914.737,VALID,0,VALID,99.5857,VALID,-0.0849042,VALID,19.7591,VALID,149,VALID,1.27949,
2002-06-10, 03:01:00,VALID,914.718,VALID,0,VALID,99.5857,VALID,-0.0679233,VALID,19.7947,VALID,154,VALID,1.57879,
2002-06-10, 03:02:00,VALID,914.733,VALID,0,VALID,99.5794,VALID,-0.101885,VALID,19.8071,VALID,142,VALID,1.53332,
2002-06-10, 03:03:00,VALID,914.75,VALID,0,VALID,99.5844,VALID,-0.101885,VALID,19.8304,VALID,137,VALID,0.791406,
2002-06-10, 03:04:00,VALID,914.746,VALID,0,VALID,99.587,VALID,-0.0849042,VALID,19.8327,VALID,146,VALID,1.05469,
2002-06-10, 03:05:00,VALID,914.725,VALID,0,VALID,99.5946,VALID,-0.101885,VALID,19.8361,VALID,170,VALID,0.853125,
2002-06-10, 03:06:00,VALID,914.732,VALID,0,VALID,99.5819,VALID,-0.0849042,VALID,19.8429,VALID,154,VALID,1.03379,
2002-06-10, 03:07:00,VALID,914.718,VALID,0,VALID,99.5755,VALID,-0.0849042,VALID,19.8232,VALID,172,VALID,1.25469,
2002-06-10, 03:08:01,VALID,914.723,VALID,0,VALID,99.5946,VALID,-0.0679233,VALID,19.7971,VALID,159,VALID,0.904871,
2002-06-10, 03:09:00,VALID,914.733,VALID,0,VALID,99.5806,VALID,-0.0849042,VALID,19.8036,VALID,160,VALID,1.0334,
2002-06-10, 03:10:00,VALID,914.734,VALID,0,VALID,99.5768,VALID,-0.0339617,VALID,19.7934,VALID,152,VALID,1.74834,
2002-06-10, 03:11:00,VALID,914.726,VALID,0,VALID,99.5781,VALID,0.0679233,VALID,19.7894,VALID,153,VALID,1.73281,
2002-06-10, 03:12:00,VALID,914.725,VALID,0,VALID,99.5844,VALID,0.0339617,VALID,19.7668,VALID,157,VALID,1.25,
2002-06-10, 03:13:00,VALID,914.718,VALID,0,VALID,99.5844,VALID,0,VALID,19.7571,VALID,148,VALID,0.846652,
2002-06-10, 03:14:01,VALID,914.698,VALID,0,VALID,99.5781,VALID,0,VALID,19.7504,VALID,138,VALID,0.87523,
2002-06-10, 03:15:00,VALID,914.688,VALID,0,VALID,99.5819,VALID,0.0509425,VALID,19.7442,VALID,132,VALID,0.698438,
2002-06-10, 03:16:00,VALID,914.673,VALID,0,VALID,99.5895,VALID,0,VALID,19.734,VALID,122,VALID,0.545928,
2002-06-10, 03:17:00,VALID,914.658,VALID,0,VALID,99.5933,VALID,0.0679233,VALID,19.741,VALID,152,VALID,1.08638,
2002-06-10, 03:18:00,VALID,914.65,VALID,0,VALID,99.5857,VALID,0,VALID,19.731,VALID,136,VALID,0.809766,
2002-06-10, 03:19:00,VALID,914.651,VALID,0,VALID,99.5819,VALID,0.0169808,VALID,19.6985,VALID,140,VALID,0.792411,
2002-06-10, 03:20:01,VALID,914.651,VALID,0,VALID,99.5933,VALID,0,VALID,19.6925,VALID,152,VALID,0.701287,
2002-06-10, 03:21:00,VALID,914.648,VALID,0,VALID,99.5895,VALID,0.0169808,VALID,19.6761,VALID,138,VALID,0.650781,
2002-06-10, 03:22:00,VALID,914.644,VALID,0,VALID,99.587,VALID,0,VALID,19.6798,VALID,113,VALID,0.314867,
2002-06-10, 03:23:00,VALID,914.662,VALID,0,VALID,99.5857,VALID,0,VALID,19.6731,VALID,125,VALID,0.725446,
2002-06-10, 03:24:00,VALID,914.665,VALID,0,VALID,99.5933,VALID,0.0169808,VALID,19.6741,VALID,92,VALID,0.398047,
2002-06-10, 03:25:00,VALID,914.672,VALID,0,VALID,99.5933,VALID,0.0339617,VALID,19.65,VALID,83,VALID,0.248214,
2002-06-10, 03:26:01,VALID,914.665,VALID,0,VALID,99.6061,VALID,0,VALID,19.6572,VALID,82,VALID,0.31227,
2002-06-10, 03:27:00,VALID,914.664,VALID,0,VALID,99.5984,VALID,0.0339617,VALID,19.6473,VALID,82,VALID,0.302539,
2002-06-10, 03:28:00,VALID,914.652,VALID,0,VALID,99.5946,VALID,0,VALID,19.6185,VALID,83,VALID,0.462358,
2002-06-10, 03:29:00,VALID,914.644,VALID,0,VALID,99.5921,VALID,0.0339617,VALID,19.5887,VALID,96,VALID,0.65692,
2002-06-10, 03:30:00,VALID,914.63,VALID,0,VALID,99.5997,VALID,0,VALID,19.5919,VALID,119,VALID,0.651172,
2002-06-10, 03:31:00,VALID,914.609,VALID,0,VALID,99.5908,VALID,0.0339617,VALID,19.5792,VALID,122,VALID,0.477009,
2002-06-10, 03:32:01,VALID,914.609,VALID,0,VALID,99.6061,VALID,0.0169808,VALID,19.5829,VALID,110,VALID,0.387178,
2002-06-10, 03:33:00,VALID,914.579,VALID,0,VALID,99.6086,VALID,0.0509425,VALID,19.5827,VALID,125,VALID,0.318359,
2002-06-10, 03:34:00,VALID,914.582,VALID,0,VALID,99.5997,VALID,0,VALID,19.573,VALID,145,VALID,0.388494,
2002-06-10, 03:35:00,VALID,914.566,VALID,0,VALID,99.6073,VALID,0.0169808,VALID,19.5735,VALID,129,VALID,0.377232,
2002-06-10, 03:36:00,VALID,914.558,VALID,0,VALID,99.6162,VALID,0,VALID,19.5536,VALID,137,VALID,0.646484,